Aérodrome :
LOGIN :

S'inscrire | Disclaimer

   EN    FR    IT 

 










Légende :    VFR   VFR Marginal   IFR   IFR Intensif   IFR Très Intensif
Visi : 
Plafond : 
>= 8 km
>= 3000ft
5 à 8 km
1000 à 3000 ft
1500m à 5 km
500 à 1000 ft
800 à 1500m
200 à 500 ft
< 800m
< 200 ft
Symboles :   Orages  Brouillard  Fortes neiges  Fortes précipitations  Vent > 20 kt
SIGMETs :   Divers  Orages  Givrage  Turbulence  Onde Orograph.  Cendres Volcan.







- Altitude de l'aérodrome : 1300 ft
- Code IATA : LIG
- Voir les cartes d'approche


LFBL - Limoges

DERNIER METAR :
  • 181530Z AUTO 17010KT CAVOK 29/15 Q1011 NOSIG

METARs EXPIRÉS :
  • 181500Z AUTO 17010KT 130V200 CAVOK 29/15 Q1011 NOSIG
  • 181430Z AUTO 17012KT CAVOK 28/13 Q1011 NOSIG
  • 181400Z AUTO 16011KT 130V200 CAVOK 28/13 Q1011 NOSIG
  • 181330Z AUTO 16010KT 100V180 CAVOK 28/13 Q1011 NOSIG
  • 181300Z AUTO 17011KT CAVOK 28/13 Q1012 NOSIG

TAF TAF LFBL
Valide du 18 à 12h jusqu'au 19 à 12h UTC


181100Z 1812/1912 16012KT CAVOK
TEMPO 1819/1823 VRB03KT SCT090TCU
BECMG 1904/1906 25008KT
BECMG 1910/1912 BKN033
ATIS : +33 5 55 48 40 37
Pas de NOTAMs connus pour ce terrain.



MET'MAP, la Météo Aéronautique d'un coup d'oeil ! - Copyright ORBIFLY Décembre 2007 - Disclaimer

ORBIFLY MET'MAP TEAM :

Programmation & Développement : Alexandra Zaïnal
Conception & Développement : Baudouin d'Aumeries
Co-Programmation & Développement : Marc-Olivier Méhu
Soutien technique & logistique : Manuel Goepfert

Contact : metmap@orbifly.com




SOURCES & CREDITS :

   NOAA